Location: Toronto
(43.6667°N, 79.4167°W)
Time: 11:07:02
(UTC-04:00)

X-37B - Pass Details

Date: 25 June 2021
Orbit: 383 x 392 km, 45.0° (Epoch: 01 July)

Event Time Altitude Azimuth Distance (km) Brightness Sun altitude
Rises 00:54:07 0° 280° (W) 2,256 4.7 -22.7°
Reaches altitude 10° 00:56:12 10° 282° (WNW) 1,402 3.6 -22.7°
Enters shadow 00:56:34 13° 283° (WNW) 1,252 3.3 -22.7°
